contact:dominique.lefevre@mio.osupytheas.fr, maurice.libes@osupytheas.fr, didier.mallarino@osupytheas.fr
Project:EMSO http://www.emso-fr.org/EMSO-France
Depth: 2436.0 m
Title:EMSO Ligure Ouest : Data MII capteur AQUADOPP
Date,Latitude,Longitude,X_East,Y_North,Z_Up,Amplitude_X,Amplitude_Y,Amplitude_Z,Batterie,SoundSpeed,Heading,Pitch,Roll,Pressure,TIS,Speed,Direction
, degrees North, degrees East, m.s-1, m.s-1,m.s-1, 1, 1, 1, Volt, m.s-1, degree, degree, degree, dbar, degree_C, m.s-1, degree
2020-12-12T00:04:03,42.805,6.029,-0.079,0.002,-0.018,105.0,106.0,102.0,13.3,1505.2,324.0,-0.8,1.8,2470.359,13.3,0.079,271.4
2020-12-12T00:07:03,42.805,6.029,-0.076,-0.015,-0.029,106.0,106.0,102.0,13.3,1505.3,324.5,-0.7,1.8,2470.34,13.31,0.077,258.8
2020-12-12T00:10:03,42.805,6.029,-0.074,-0.007,-0.04,104.0,107.0,101.0,13.3,1505.3,325.2,-0.7,1.8,2470.34,13.31,0.074,264.6
2020-12-12T00:13:03,42.805,6.029,-0.056,0.001,-0.015,106.0,106.0,103.0,13.3,1505.3,326.5,-0.7,1.8,2470.278,13.32,0.056,271.0
2020-12-12T00:16:03,42.805,6.029,-0.084,0.003,-0.033,104.0,105.0,103.0,13.4,1505.3,326.0,-0.7,1.8,2470.33,13.32,0.084,272.0
2020-12-12T00:19:03,42.805,6.029,-0.034,0.013,0.004,104.0,107.0,102.0,13.3,1505.3,323.8,-0.7,1.8,2470.274,13.32,0.036,290.9
2020-12-12T00:22:03,42.805,6.029,-0.067,-0.001,-0.023,104.0,106.0,102.0,13.4,1505.3,326.3,-0.7,1.8,2470.291,13.32,0.067,269.1
2020-12-12T00:25:03,42.805,6.029,-0.087,0.0,-0.018,104.0,108.0,102.0,13.4,1505.3,324.2,-0.7,1.8,2470.312,13.32,0.086,270.0
2020-12-12T00:28:03,42.805,6.029,-0.055,-0.002,0.004,104.0,105.0,103.0,13.3,1505.3,324.5,-0.7,1.9,2470.298,13.32,0.055,267.9
2020-12-12T00:31:03,42.805,6.029,-0.076,0.004,-0.034,103.0,108.0,102.0,13.4,1505.3,326.7,-0.7,1.8,2470.366,13.32,0.076,273.0
2020-12-12T00:34:03,42.805,6.029,-0.066,0.009,-0.02,104.0,106.0,103.0,13.4,1505.3,324.5,-0.7,1.8,2470.312,13.32,0.066,277.8
2020-12-12T00:37:03,42.805,6.029,-0.053,0.0,-0.006,104.0,107.0,103.0,13.3,1505.3,323.3,-0.7,1.8,2470.29,13.32,0.053,270.0
2020-12-12T00:40:03,42.805,6.029,-0.06,0.014,0.0,105.0,106.0,103.0,13.3,1505.3,324.6,-0.7,1.8,2470.31,13.32,0.061,283.1
2020-12-12T00:43:03,42.805,6.029,-0.045,0.0,-0.025,106.0,107.0,101.0,13.3,1505.3,326.1,-0.7,1.8,2470.346,13.32,0.045,270.0
2020-12-12T00:46:03,42.805,6.029,-0.049,0.008,-0.011,105.0,108.0,101.0,13.3,1505.3,323.8,-0.7,1.9,2470.316,13.32,0.049,279.3
2020-12-12T00:49:03,42.805,6.029,-0.087,0.001,-0.04,104.0,106.0,101.0,13.4,1505.3,323.1,-0.7,1.8,2470.332,13.32,0.087,270.7
2020-12-12T00:52:03,42.805,6.029,-0.082,0.0,-0.034,105.0,105.0,100.0,13.4,1505.3,325.9,-0.7,1.8,2470.266,13.32,0.081,270.0
2020-12-12T00:55:03,42.805,6.029,-0.051,0.016,-0.021,105.0,105.0,101.0,13.4,1505.3,323.7,-0.7,1.8,2470.324,13.32,0.053,287.4
2020-12-12T00:58:03,42.805,6.029,-0.077,0.023,-0.034,106.0,106.0,101.0,13.4,1505.3,326.2,-0.7,1.8,2470.313,13.32,0.08,286.6
2020-12-12T01:04:03,42.805,6.029,-0.091,-0.008,-0.056,106.0,109.0,103.0,13.4,1505.2,325.9,-0.8,1.8,2470.349,13.3,0.091,265.0
2020-12-12T01:07:03,42.805,6.029,-0.055,-0.006,-0.003,105.0,107.0,102.0,13.3,1505.3,325.6,-0.7,1.9,2470.346,13.31,0.055,263.8
2020-12-12T01:10:03,42.805,6.029,-0.029,0.009,0.003,104.0,105.0,102.0,13.3,1505.3,327.6,-0.7,1.8,2470.364,13.31,0.03,287.2
2020-12-12T01:13:03,42.805,6.029,-0.096,0.013,-0.016,104.0,106.0,102.0,13.3,1505.3,328.4,-0.7,1.9,2470.346,13.32,0.096,277.7
2020-12-12T01:16:03,42.805,6.029,-0.037,-0.002,0.005,104.0,106.0,101.0,13.3,1505.3,326.2,-0.7,1.8,2470.37,13.32,0.037,266.9
2020-12-12T01:19:03,42.805,6.029,-0.064,0.001,-0.013,104.0,107.0,102.0,13.4,1505.3,324.9,-0.7,1.8,2470.387,13.32,0.064,270.9
2020-12-12T01:22:03,42.805,6.029,-0.088,0.025,-0.056,105.0,106.0,101.0,13.4,1505.3,326.5,-0.7,1.8,2470.36,13.32,0.091,285.9
2020-12-12T01:25:03,42.805,6.029,-0.051,-0.013,-0.02,105.0,106.0,101.0,13.4,1505.3,327.6,-0.7,1.8,2470.366,13.32,0.052,255.7
2020-12-12T01:28:03,42.805,6.029,-0.067,0.004,-0.028,105.0,108.0,102.0,13.4,1505.3,324.0,-0.7,1.9,2470.346,13.32,0.067,273.4
2020-12-12T01:31:03,42.805,6.029,-0.074,-0.002,-0.027,104.0,105.0,103.0,13.3,1505.3,326.5,-0.7,1.8,2470.344,13.32,0.074,268.5
2020-12-12T01:34:03,42.805,6.029,-0.066,-0.018,-0.029,104.0,106.0,102.0,13.4,1505.3,323.3,-0.7,1.8,2470.347,13.32,0.068,254.7
2020-12-12T01:37:03,42.805,6.029,-0.062,0.002,-0.008,105.0,107.0,102.0,13.4,1505.3,324.9,-0.7,1.8,2470.377,13.32,0.062,271.8
2020-12-12T01:40:03,42.805,6.029,-0.06,-0.005,-0.018,104.0,108.0,102.0,13.4,1505.3,324.0,-0.7,1.9,2470.356,13.32,0.06,265.2
2020-12-12T01:43:03,42.805,6.029,-0.04,-0.012,-0.029,105.0,107.0,102.0,13.3,1505.3,325.4,-0.7,1.9,2470.354,13.32,0.041,253.3
2020-12-12T01:46:03,42.805,6.029,-0.071,-0.013,-0.005,105.0,107.0,102.0,13.4,1505.3,324.4,-0.7,1.8,2470.372,13.32,0.072,259.6
2020-12-12T01:49:03,42.805,6.029,-0.061,-0.012,-0.011,105.0,106.0,102.0,13.4,1505.3,322.6,-0.7,1.8,2470.379,13.32,0.062,258.9
2020-12-12T01:52:03,42.805,6.029,-0.026,-0.003,0.0,104.0,107.0,101.0,13.4,1505.3,324.9,-0.7,1.9,2470.384,13.32,0.026,263.4
2020-12-12T01:55:03,42.805,6.029,-0.064,0.0,-0.016,105.0,105.0,102.0,13.3,1505.3,325.1,-0.7,1.8,2470.394,13.32,0.063,270.0
2020-12-12T01:58:03,42.805,6.029,-0.048,-0.014,-0.002,106.0,107.0,101.0,13.3,1505.3,328.1,-0.7,1.8,2470.408,13.32,0.05,253.7
2020-12-12T02:04:03,42.805,6.029,-0.048,-0.012,0.014,104.0,107.0,102.0,13.3,1505.2,324.8,-0.7,1.8,2470.448,13.3,0.049,256.0
2020-12-12T02:07:03,42.805,6.029,-0.065,0.0,-0.016,105.0,107.0,102.0,13.3,1505.3,325.4,-0.7,1.8,2470.387,13.31,0.064,270.0
2020-12-12T02:10:03,42.805,6.029,-0.039,-0.003,-0.004,105.0,107.0,102.0,13.3,1505.3,327.8,-0.7,1.8,2470.427,13.31,0.039,265.6
2020-12-12T02:13:03,42.805,6.029,-0.06,-0.019,0.015,105.0,106.0,101.0,13.4,1505.3,324.2,-0.7,1.8,2470.433,13.32,0.062,252.4
2020-12-12T02:16:03,42.805,6.029,-0.071,-0.001,-0.017,106.0,108.0,102.0,13.4,1505.3,326.2,-0.7,1.8,2470.424,13.32,0.071,269.2
2020-12-12T02:19:03,42.805,6.029,-0.046,-0.031,0.04,106.0,106.0,102.0,13.4,1505.3,327.4,-0.7,1.8,2470.417,13.32,0.055,236.0
2020-12-12T02:22:03,42.805,6.029,-0.039,0.005,-0.018,105.0,108.0,103.0,13.3,1505.3,322.3,-0.7,1.8,2470.423,13.32,0.039,277.3
2020-12-12T02:25:03,42.805,6.029,-0.077,0.007,-0.003,105.0,108.0,102.0,13.4,1505.3,324.7,-0.7,1.9,2470.415,13.32,0.077,275.2
2020-12-12T02:28:03,42.805,6.029,-0.046,-0.007,0.006,104.0,106.0,103.0,13.4,1505.3,326.5,-0.6,1.8,2470.424,13.32,0.046,261.3
2020-12-12T02:31:03,42.805,6.029,-0.017,-0.014,0.0,105.0,107.0,102.0,13.3,1505.3,323.9,-0.7,1.8,2470.457,13.32,0.022,230.5
2020-12-12T02:34:03,42.805,6.029,-0.049,-0.001,-0.023,105.0,106.0,103.0,13.3,1505.3,327.3,-0.7,1.8,2470.441,13.32,0.049,268.8
2020-12-12T02:40:03,42.805,6.029,-0.042,-0.024,0.008,105.0,106.0,102.0,13.4,1505.2,325.7,-0.7,1.8,2470.453,13.3,0.048,240.3
2020-12-12T02:43:03,42.805,6.029,-0.048,-0.011,-0.027,106.0,108.0,101.0,13.4,1505.3,322.9,-0.7,1.9,2470.464,13.31,0.049,257.1
2020-12-12T02:46:03,42.805,6.029,-0.052,-0.009,-0.009,107.0,107.0,101.0,13.4,1505.3,324.6,-0.7,1.8,2470.459,13.31,0.052,260.2
2020-12-12T02:49:03,42.805,6.029,-0.046,-0.019,-0.032,105.0,107.0,102.0,13.4,1505.3,325.9,-0.7,1.8,2470.458,13.32,0.049,247.6
2020-12-12T02:52:03,42.805,6.029,-0.06,-0.017,0.002,104.0,105.0,103.0,13.3,1505.3,325.6,-0.7,1.8,2470.458,13.32,0.062,254.2
2020-12-12T02:55:03,42.805,6.029,-0.041,-0.016,-0.022,104.0,107.0,102.0,13.4,1505.3,325.6,-0.7,1.8,2470.484,13.32,0.044,248.7
2020-12-12T02:58:03,42.805,6.029,-0.084,-0.006,-0.037,104.0,106.0,102.0,13.4,1505.3,324.9,-0.8,1.8,2470.468,13.32,0.084,265.9
2020-12-12T03:04:03,42.805,6.029,-0.071,-0.023,-0.023,104.0,107.0,101.0,13.3,1505.2,324.7,-0.7,1.8,2470.547,13.3,0.074,252.1
2020-12-12T03:07:03,42.805,6.029,-0.059,0.003,-0.014,105.0,107.0,102.0,13.4,1505.3,326.3,-0.7,1.8,2470.518,13.31,0.059,272.9
2020-12-12T03:10:03,42.805,6.029,-0.049,-0.001,-0.027,104.0,106.0,102.0,13.4,1505.3,324.7,-0.7,1.8,2470.458,13.31,0.049,268.8
2020-12-12T03:13:03,42.805,6.029,-0.055,0.0,-0.012,105.0,108.0,102.0,13.4,1505.3,323.2,-0.7,1.8,2470.499,13.32,0.055,270.0
2020-12-12T03:16:03,42.805,6.029,-0.052,0.015,-0.01,105.0,108.0,101.0,13.4,1505.3,326.2,-0.7,1.8,2470.51,13.32,0.054,286.1
2020-12-12T03:19:03,42.805,6.029,-0.057,0.0,-0.027,106.0,108.0,101.0,13.3,1505.3,326.0,-0.7,1.9,2470.481,13.32,0.057,270.0
2020-12-12T03:22:03,42.805,6.029,-0.05,0.0,-0.035,106.0,108.0,103.0,13.4,1505.3,323.8,-0.7,1.8,2470.474,13.32,0.05,270.0
2020-12-12T03:25:03,42.805,6.029,-0.05,0.021,0.001,105.0,107.0,102.0,13.3,1505.3,324.7,-0.7,1.8,2470.484,13.32,0.054,292.8
2020-12-12T03:28:03,42.805,6.029,-0.039,-0.027,-0.009,105.0,107.0,101.0,13.3,1505.3,326.5,-0.7,1.8,2470.474,13.32,0.047,235.3
2020-12-12T03:31:03,42.805,6.029,-0.066,-0.013,0.004,104.0,106.0,103.0,13.4,1505.3,327.3,-0.7,1.8,2470.434,13.32,0.067,258.9
2020-12-12T03:34:03,42.805,6.029,-0.072,-0.019,-0.019,105.0,106.0,103.0,13.4,1505.3,323.7,-0.7,1.8,2470.467,13.32,0.074,255.2
2020-12-12T03:37:03,42.805,6.029,-0.07,-0.018,-0.007,105.0,106.0,102.0,13.3,1505.3,325.4,-0.7,1.8,2470.462,13.32,0.072,255.6
2020-12-12T03:40:03,42.805,6.029,-0.052,-0.004,0.006,105.0,107.0,101.0,13.4,1505.3,326.9,-0.7,1.8,2470.493,13.32,0.052,265.6
2020-12-12T03:43:03,42.805,6.029,-0.042,0.006,0.0,106.0,107.0,102.0,13.3,1505.3,322.7,-0.7,1.8,2470.503,13.32,0.042,278.1
2020-12-12T03:46:03,42.805,6.029,-0.05,-0.008,-0.004,104.0,107.0,103.0,13.4,1505.3,326.5,-0.7,1.8,2470.497,13.32,0.05,260.9
2020-12-12T03:49:03,42.805,6.029,-0.07,-0.006,-0.02,104.0,107.0,103.0,13.3,1505.3,324.2,-0.7,1.8,2470.471,13.32,0.07,265.1
2020-12-12T03:52:03,42.805,6.029,-0.049,0.007,-0.003,106.0,108.0,102.0,13.4,1505.3,328.3,-0.7,1.8,2470.474,13.32,0.049,278.1
2020-12-12T03:55:03,42.805,6.029,-0.059,0.006,0.0,105.0,109.0,101.0,13.4,1505.3,323.8,-0.7,1.8,2470.507,13.32,0.059,275.8
2020-12-12T03:58:03,42.805,6.029,-0.056,0.0,-0.004,105.0,109.0,101.0,13.4,1505.3,326.0,-0.7,1.9,2470.504,13.32,0.056,270.0
2020-12-12T04:04:03,42.805,6.029,-0.04,-0.023,-0.029,104.0,107.0,101.0,13.4,1505.3,325.3,-0.8,1.8,2470.562,13.31,0.046,240.1
2020-12-12T04:07:03,42.805,6.029,-0.055,-0.007,-0.006,106.0,107.0,101.0,13.3,1505.3,326.3,-0.7,1.8,2470.499,13.31,0.055,262.7
2020-12-12T04:13:03,42.805,6.029,-0.056,0.008,-0.019,104.0,107.0,103.0,13.4,1505.2,327.9,-0.7,1.8,2470.538,13.3,0.056,278.1
2020-12-12T04:16:03,42.805,6.029,-0.059,0.008,-0.007,106.0,105.0,102.0,13.4,1505.3,327.8,-0.7,1.8,2470.532,13.31,0.059,277.7
2020-12-12T04:19:03,42.805,6.029,-0.05,-0.041,-0.014,106.0,106.0,101.0,13.4,1505.3,322.8,-0.7,1.8,2470.546,13.31,0.064,230.7
2020-12-12T04:22:03,42.805,6.029,-0.045,-0.001,-0.012,104.0,107.0,103.0,13.3,1505.3,324.3,-0.7,1.8,2470.55,13.32,0.045,268.7
2020-12-12T04:25:03,42.805,6.029,-0.054,-0.005,-0.022,105.0,108.0,102.0,13.3,1505.3,325.3,-0.7,1.8,2470.524,13.32,0.054,264.7
2020-12-12T04:28:03,42.805,6.029,-0.043,0.001,0.012,106.0,108.0,101.0,13.4,1505.3,324.5,-0.7,1.8,2470.538,13.32,0.043,271.3
2020-12-12T04:31:03,42.805,6.029,-0.04,-0.005,-0.001,106.0,107.0,103.0,13.4,1505.3,325.4,-0.7,1.8,2470.502,13.32,0.04,262.9
2020-12-12T04:34:03,42.805,6.029,-0.045,0.001,-0.023,104.0,108.0,102.0,13.3,1505.3,323.9,-0.7,1.8,2470.528,13.32,0.045,271.3
2020-12-12T04:37:03,42.805,6.029,-0.043,0.005,0.0,105.0,106.0,102.0,13.3,1505.3,322.6,-0.7,1.8,2470.536,13.32,0.043,276.6
2020-12-12T04:40:03,42.805,6.029,-0.051,-0.002,-0.012,106.0,106.0,102.0,13.4,1505.3,328.2,-0.7,1.8,2470.546,13.32,0.051,267.8
2020-12-12T04:43:03,42.805,6.029,-0.053,0.016,-0.008,105.0,108.0,102.0,13.4,1505.3,323.9,-0.7,1.8,2470.519,13.32,0.055,286.8
2020-12-12T04:46:03,42.805,6.029,-0.04,-0.018,0.012,106.0,107.0,103.0,13.3,1505.3,325.1,-0.7,1.8,2470.526,13.32,0.043,245.8
2020-12-12T04:49:03,42.805,6.029,-0.046,-0.016,-0.018,106.0,107.0,104.0,13.4,1505.3,326.1,-0.7,1.8,2470.511,13.32,0.048,250.8
2020-12-12T04:52:03,42.805,6.029,-0.046,-0.005,-0.003,105.0,106.0,104.0,13.3,1505.3,324.8,-0.7,1.9,2470.507,13.32,0.046,263.8
2020-12-12T04:55:03,42.805,6.029,-0.045,-0.01,-0.024,105.0,106.0,102.0,13.3,1505.3,325.9,-0.7,1.8,2470.563,13.32,0.046,257.5
2020-12-12T04:58:03,42.805,6.029,-0.066,0.002,-0.024,105.0,106.0,103.0,13.4,1505.3,326.9,-0.7,1.8,2470.489,13.32,0.066,271.7
2020-12-12T05:04:03,42.805,6.029,-0.074,-0.012,-0.037,104.0,106.0,102.0,13.3,1505.2,327.1,-0.8,1.9,2470.55,13.3,0.074,260.8
2020-12-12T05:07:03,42.805,6.029,-0.041,0.005,-0.031,105.0,107.0,102.0,13.4,1505.3,327.5,-0.7,1.8,2470.526,13.31,0.041,277.0
2020-12-12T05:10:03,42.805,6.029,-0.048,-0.005,0.0,105.0,107.0,101.0,13.4,1505.3,325.8,-0.7,1.8,2470.534,13.31,0.048,264.1
2020-12-12T05:13:03,42.805,6.029,-0.061,0.001,-0.017,104.0,106.0,103.0,13.4,1505.3,324.3,-0.7,1.8,2470.579,13.32,0.061,270.9
2020-12-12T05:16:03,42.805,6.029,-0.042,-0.021,0.011,105.0,108.0,102.0,13.4,1505.3,324.7,-0.7,1.8,2470.54,13.32,0.046,243.4
2020-12-12T05:19:03,42.805,6.029,-0.049,0.003,-0.02,105.0,107.0,102.0,13.4,1505.3,324.8,-0.7,1.8,2470.497,13.32,0.049,273.5
2020-12-12T05:22:03,42.805,6.029,-0.058,0.008,-0.033,105.0,107.0,101.0,13.4,1505.3,327.0,-0.7,1.8,2470.533,13.32,0.058,277.8
2020-12-12T05:25:03,42.805,6.029,-0.05,-0.015,-0.022,105.0,107.0,102.0,13.3,1505.3,323.8,-0.7,1.9,2470.519,13.32,0.052,253.3
2020-12-12T05:28:03,42.805,6.029,-0.05,-0.014,0.0,104.0,107.0,103.0,13.3,1505.3,326.9,-0.7,1.8,2470.523,13.32,0.051,254.4
2020-12-12T05:31:03,42.805,6.029,-0.052,0.01,-0.018,105.0,106.0,101.0,13.4,1505.3,327.1,-0.7,1.8,2470.501,13.32,0.052,280.9
2020-12-12T05:34:03,42.805,6.029,-0.048,0.002,-0.003,105.0,106.0,102.0,13.3,1505.3,324.9,-0.7,1.8,2470.497,13.32,0.048,272.4
2020-12-12T05:37:03,42.805,6.029,-0.064,0.0,-0.035,105.0,105.0,102.0,13.3,1505.3,324.3,-0.7,1.8,2470.495,13.32,0.063,270.0
2020-12-12T05:40:03,42.805,6.029,-0.053,-0.015,-0.021,106.0,107.0,101.0,13.4,1505.3,323.1,-0.7,1.8,2470.514,13.32,0.055,254.2
2020-12-12T05:43:03,42.805,6.029,-0.044,-0.028,-0.007,105.0,105.0,101.0,13.4,1505.3,326.4,-0.7,1.8,2470.504,13.32,0.052,237.5
2020-12-12T05:46:03,42.805,6.029,-0.039,-0.004,-0.002,103.0,107.0,101.0,13.4,1505.3,323.0,-0.7,1.8,2470.533,13.32,0.039,264.1
2020-12-12T05:49:03,42.805,6.029,-0.063,-0.004,-0.008,104.0,106.0,100.0,13.3,1505.3,324.9,-0.7,1.8,2470.516,13.32,0.063,266.4
2020-12-12T05:52:03,42.805,6.029,-0.053,-0.014,0.01,104.0,106.0,100.0,13.3,1505.3,326.3,-0.7,1.8,2470.529,13.32,0.054,255.2
2020-12-12T05:55:03,42.805,6.029,-0.021,0.004,0.012,104.0,106.0,101.0,13.4,1505.3,328.0,-0.7,1.9,2470.511,13.32,0.021,280.8
2020-12-12T05:58:03,42.805,6.029,-0.06,0.002,-0.024,105.0,106.0,102.0,13.4,1505.3,324.1,-0.7,1.8,2470.504,13.32,0.06,271.9
2020-12-12T06:04:03,42.805,6.029,-0.023,-0.026,-0.013,104.0,106.0,102.0,13.3,1505.2,325.3,-0.7,1.8,2470.554,13.3,0.034,221.5
2020-12-12T06:07:03,42.805,6.029,-0.057,-0.022,-0.007,104.0,106.0,102.0,13.4,1505.3,327.4,-0.8,1.8,2470.55,13.31,0.061,248.9
2020-12-12T06:10:03,42.805,6.029,-0.05,0.006,-0.027,104.0,107.0,102.0,13.4,1505.3,323.0,-0.7,1.8,2470.528,13.32,0.05,276.8
2020-12-12T06:13:03,42.805,6.029,-0.035,-0.012,0.016,104.0,108.0,101.0,13.3,1505.3,325.2,-0.7,1.8,2470.506,13.32,0.037,251.1
2020-12-12T06:16:03,42.805,6.029,-0.034,0.001,-0.02,104.0,108.0,100.0,13.3,1505.3,326.4,-0.7,1.8,2470.528,13.32,0.034,271.7
2020-12-12T06:19:03,42.805,6.029,-0.049,-0.009,0.019,104.0,105.0,102.0,13.4,1505.3,323.6,-0.7,1.8,2470.521,13.32,0.049,259.6
2020-12-12T06:22:03,42.805,6.029,-0.053,0.005,0.019,106.0,106.0,101.0,13.3,1505.3,325.4,-0.7,1.8,2470.529,13.32,0.053,275.4
2020-12-12T06:25:03,42.805,6.029,-0.034,-0.004,-0.035,105.0,108.0,101.0,13.4,1505.3,325.6,-0.7,1.8,2470.479,13.32,0.034,263.3
2020-12-12T06:28:03,42.805,6.029,-0.054,-0.002,-0.011,105.0,106.0,102.0,13.4,1505.3,328.0,-0.7,1.9,2470.528,13.32,0.054,267.9
2020-12-12T06:31:03,42.805,6.029,-0.046,-0.017,0.007,104.0,106.0,103.0,13.3,1505.3,324.0,-0.7,1.8,2470.494,13.32,0.049,249.7
2020-12-12T06:34:03,42.805,6.029,-0.041,-0.004,0.012,104.0,107.0,102.0,13.4,1505.3,325.3,-0.7,1.8,2470.521,13.32,0.041,264.4
2020-12-12T06:37:03,42.805,6.029,-0.05,-0.007,-0.009,104.0,107.0,101.0,13.4,1505.3,324.3,-0.7,1.8,2470.501,13.32,0.05,262.0
2020-12-12T06:40:03,42.805,6.029,-0.069,0.009,-0.029,105.0,107.0,103.0,13.4,1505.3,325.7,-0.7,1.8,2470.449,13.32,0.069,277.4
2020-12-12T06:43:03,42.805,6.029,-0.032,-0.009,0.027,104.0,106.0,102.0,13.4,1505.3,325.1,-0.7,1.8,2470.507,13.32,0.033,254.3
2020-12-12T06:46:03,42.805,6.029,-0.062,0.017,-0.023,105.0,106.0,101.0,13.4,1505.3,326.3,-0.7,1.8,2470.518,13.32,0.064,285.3
2020-12-12T06:49:03,42.805,6.029,-0.061,0.009,-0.022,104.0,106.0,102.0,13.4,1505.3,326.4,-0.7,1.8,2470.491,13.32,0.061,278.4
2020-12-12T06:52:03,42.805,6.029,-0.062,0.005,-0.003,104.0,106.0,101.0,13.3,1505.3,325.1,-0.7,1.8,2470.489,13.32,0.062,274.6
2020-12-12T06:55:03,42.805,6.029,-0.043,-0.001,-0.006,103.0,108.0,101.0,13.4,1505.3,326.8,-0.7,1.8,2470.525,13.32,0.043,268.7
2020-12-12T06:58:03,42.805,6.029,-0.066,0.029,0.024,104.0,106.0,102.0,13.4,1505.3,327.6,-0.7,1.8,2470.502,13.32,0.072,293.7
2020-12-12T07:04:03,42.805,6.029,-0.074,-0.027,-0.051,104.0,107.0,101.0,13.4,1505.3,323.2,-0.7,1.8,2470.535,13.31,0.078,250.0
2020-12-12T07:07:03,42.805,6.029,-0.052,0.0,-0.024,106.0,106.0,101.0,13.3,1505.3,325.7,-0.7,1.8,2470.501,13.31,0.052,270.0
2020-12-12T07:10:03,42.805,6.029,-0.053,-0.009,-0.014,105.0,105.0,101.0,13.4,1505.3,326.1,-0.7,1.8,2470.521,13.31,0.053,260.4
2020-12-12T07:13:03,42.805,6.029,-0.052,0.001,-0.032,103.0,106.0,101.0,13.4,1505.3,326.6,-0.7,1.8,2470.521,13.32,0.052,271.1
2020-12-12T07:16:03,42.805,6.029,-0.017,0.006,0.0,106.0,106.0,102.0,13.4,1505.3,325.5,-0.7,1.8,2470.448,13.32,0.018,289.4
2020-12-12T07:19:03,42.805,6.029,-0.053,-0.009,-0.014,104.0,108.0,101.0,13.4,1505.3,325.3,-0.7,1.8,2470.472,13.32,0.053,260.4
2020-12-12T07:22:03,42.805,6.029,-0.025,-0.015,-0.018,105.0,106.0,101.0,13.4,1505.3,326.4,-0.7,1.8,2470.483,13.32,0.029,239.0
2020-12-12T07:25:03,42.805,6.029,-0.027,0.0,0.019,106.0,107.0,101.0,13.3,1505.3,327.0,-0.7,1.9,2470.501,13.32,0.026,270.0
2020-12-12T07:28:03,42.805,6.029,-0.041,0.006,0.008,105.0,106.0,101.0,13.3,1505.3,326.1,-0.7,1.8,2470.512,13.32,0.041,278.3
2020-12-12T07:31:03,42.805,6.029,-0.016,0.0,-0.008,104.0,106.0,102.0,13.4,1505.3,325.6,-0.7,1.8,2470.467,13.32,0.016,270.0
2020-12-12T07:34:03,42.805,6.029,-0.055,-0.01,-0.014,105.0,104.0,101.0,13.3,1505.3,325.5,-0.7,1.8,2470.462,13.32,0.055,259.7
2020-12-12T07:37:03,42.805,6.029,-0.087,-0.01,-0.014,104.0,106.0,101.0,13.3,1505.3,324.2,-0.7,1.8,2470.472,13.32,0.087,263.4
2020-12-12T07:40:03,42.805,6.029,-0.034,0.006,0.012,104.0,107.0,100.0,13.3,1505.3,322.9,-0.7,1.8,2470.469,13.32,0.034,280.0
2020-12-12T07:43:03,42.805,6.029,-0.06,-0.01,0.003,104.0,108.0,101.0,13.4,1505.3,325.9,-0.7,1.8,2470.481,13.32,0.06,260.5
2020-12-12T07:46:03,42.805,6.029,-0.048,-0.006,-0.01,105.0,106.0,102.0,13.3,1505.3,324.5,-0.7,1.9,2470.474,13.32,0.048,262.9
2020-12-12T07:49:03,42.805,6.029,-0.052,-0.015,-0.007,104.0,106.0,102.0,13.4,1505.3,325.3,-0.7,1.8,2470.447,13.32,0.054,253.9
2020-12-12T07:52:03,42.805,6.029,-0.052,-0.007,0.004,104.0,106.0,102.0,13.3,1505.3,325.7,-0.7,1.8,2470.439,13.32,0.052,262.3
2020-12-12T07:55:03,42.805,6.029,-0.064,0.0,-0.05,105.0,106.0,102.0,13.3,1505.3,327.2,-0.7,1.8,2470.492,13.32,0.063,270.0
2020-12-12T07:58:03,42.805,6.029,-0.05,-0.005,-0.001,104.0,106.0,102.0,13.4,1505.3,326.8,-0.7,1.8,2470.452,13.32,0.05,264.3
2020-12-12T08:04:03,42.805,6.029,-0.048,0.0,-0.019,105.0,107.0,100.0,13.4,1505.2,326.1,-0.8,1.8,2470.477,13.3,0.048,270.0
2020-12-12T08:07:03,42.805,6.029,-0.065,0.009,-0.022,104.0,107.0,101.0,13.4,1505.3,323.0,-0.7,1.8,2470.481,13.31,0.065,277.9
2020-12-12T08:10:03,42.805,6.029,-0.044,-0.004,-0.033,104.0,106.0,102.0,13.4,1505.3,324.5,-0.7,1.8,2470.479,13.31,0.044,264.8
2020-12-12T08:13:03,42.805,6.029,-0.044,-0.005,0.0,105.0,105.0,101.0,13.4,1505.3,322.8,-0.7,1.8,2470.506,13.32,0.044,263.5
2020-12-12T08:16:03,42.805,6.029,-0.055,0.002,-0.002,104.0,105.0,102.0,13.4,1505.3,327.3,-0.7,1.8,2470.493,13.32,0.055,272.1
2020-12-12T08:19:03,42.805,6.029,-0.057,-0.027,-0.022,103.0,105.0,102.0,13.4,1505.3,323.8,-0.7,1.8,2470.44,13.32,0.063,244.7
2020-12-12T08:22:03,42.805,6.029,-0.041,0.006,0.006,102.0,106.0,102.0,13.4,1505.3,328.1,-0.7,1.8,2470.475,13.32,0.041,278.3
2020-12-12T08:25:03,42.805,6.029,-0.076,0.014,-0.024,104.0,105.0,102.0,13.4,1505.3,326.0,-0.7,1.8,2470.484,13.32,0.077,280.4
2020-12-12T08:28:03,42.805,6.029,-0.041,-0.015,0.003,105.0,107.0,101.0,13.4,1505.3,324.0,-0.7,1.8,2470.469,13.32,0.043,249.9
2020-12-12T08:31:03,42.805,6.029,-0.033,-0.015,0.024,104.0,106.0,101.0,13.4,1505.3,325.0,-0.7,1.9,2470.43,13.32,0.036,245.6
2020-12-12T08:34:03,42.805,6.029,-0.059,0.0,-0.028,105.0,105.0,101.0,13.3,1505.3,325.0,-0.7,1.8,2470.483,13.32,0.058,270.0
2020-12-12T08:37:03,42.805,6.029,-0.049,0.002,0.0,105.0,107.0,102.0,13.3,1505.3,327.1,-0.7,1.9,2470.461,13.32,0.049,272.3
2020-12-12T08:40:03,42.805,6.029,-0.068,0.0,-0.017,103.0,106.0,101.0,13.3,1505.3,322.7,-0.7,1.8,2470.465,13.32,0.067,270.0
2020-12-12T08:43:03,42.805,6.029,-0.061,0.005,-0.004,103.0,106.0,101.0,13.4,1505.3,328.1,-0.7,1.8,2470.476,13.32,0.061,274.7
2020-12-12T08:46:03,42.805,6.029,-0.03,-0.017,-0.022,104.0,104.0,101.0,13.3,1505.3,324.7,-0.7,1.8,2470.436,13.32,0.034,240.5
2020-12-12T08:49:03,42.805,6.029,-0.052,-0.007,-0.006,104.0,105.0,101.0,13.3,1505.3,326.4,-0.7,1.8,2470.442,13.32,0.052,262.3
2020-12-12T08:52:03,42.805,6.029,-0.056,-0.025,-0.004,105.0,106.0,102.0,13.4,1505.3,324.8,-0.7,1.8,2470.411,13.32,0.061,245.9
2020-12-12T08:55:03,42.805,6.029,-0.036,-0.005,-0.017,105.0,106.0,102.0,13.4,1505.3,324.2,-0.7,1.8,2470.447,13.32,0.036,262.1
2020-12-12T08:58:03,42.805,6.029,-0.061,0.004,-0.029,104.0,105.0,100.0,13.3,1505.3,326.6,-0.7,1.8,2470.435,13.32,0.061,273.7
2020-12-12T09:04:03,42.805,6.029,-0.033,-0.013,0.002,103.0,106.0,102.0,13.4,1505.2,326.3,-0.7,1.8,2470.44,13.3,0.035,248.5
2020-12-12T09:07:03,42.805,6.029,-0.06,-0.026,-0.012,104.0,105.0,102.0,13.4,1505.3,328.2,-0.7,1.8,2470.478,13.31,0.065,246.6
2020-12-12T09:10:03,42.805,6.029,-0.043,0.001,-0.03,104.0,105.0,101.0,13.4,1505.3,322.7,-0.7,1.8,2470.472,13.31,0.043,271.3
2020-12-12T09:13:03,42.805,6.029,-0.045,-0.027,-0.03,103.0,104.0,101.0,13.4,1505.3,326.1,-0.7,1.9,2470.435,13.32,0.052,239.0
2020-12-12T09:16:03,42.805,6.029,-0.052,0.005,-0.004,104.0,105.0,101.0,13.4,1505.3,327.0,-0.7,1.8,2470.408,13.32,0.052,275.5
2020-12-12T09:19:03,42.805,6.029,-0.034,-0.001,-0.007,104.0,106.0,101.0,13.4,1505.3,325.1,-0.7,1.8,2470.456,13.32,0.034,268.3
2020-12-12T09:22:03,42.805,6.029,-0.032,0.0,0.008,103.0,106.0,101.0,13.4,1505.3,324.9,-0.7,1.8,2470.464,13.32,0.032,270.0
2020-12-12T09:25:03,42.805,6.029,-0.066,-0.014,0.005,104.0,104.0,101.0,13.4,1505.3,327.9,-0.7,1.8,2470.439,13.32,0.067,258.0
2020-12-12T09:28:03,42.805,6.029,-0.069,-0.004,-0.001,103.0,104.0,102.0,13.4,1505.3,324.9,-0.7,1.8,2470.452,13.32,0.069,266.7
2020-12-12T09:31:03,42.805,6.029,-0.048,-0.005,0.026,104.0,105.0,101.0,13.4,1505.3,325.1,-0.7,1.8,2470.455,13.32,0.048,264.1
2020-12-12T09:34:03,42.805,6.029,-0.03,-0.009,0.0,105.0,105.0,101.0,13.4,1505.3,327.9,-0.7,1.8,2470.432,13.32,0.031,253.3
2020-12-12T09:37:03,42.805,6.029,-0.076,0.001,-0.044,102.0,105.0,102.0,13.4,1505.3,323.2,-0.7,1.8,2470.42,13.32,0.076,270.8
2020-12-12T09:40:03,42.805,6.029,-0.096,-0.018,-0.061,102.0,105.0,101.0,13.4,1505.3,323.5,-0.7,1.8,2470.441,13.32,0.097,259.4
2020-12-12T09:43:03,42.805,6.029,-0.04,-0.014,0.005,105.0,104.0,102.0,13.3,1505.3,324.6,-0.7,1.8,2470.428,13.32,0.042,250.7
2020-12-12T09:46:03,42.805,6.029,-0.063,-0.001,-0.024,104.0,105.0,101.0,13.4,1505.3,325.9,-0.7,1.8,2470.397,13.32,0.063,269.1
2020-12-12T09:49:03,42.805,6.029,-0.019,-0.02,-0.018,103.0,105.0,101.0,13.4,1505.3,324.9,-0.7,1.8,2470.403,13.32,0.027,223.5
2020-12-12T09:52:03,42.805,6.029,-0.062,-0.028,0.005,103.0,105.0,101.0,13.4,1505.3,328.0,-0.7,1.8,2470.426,13.32,0.068,245.7
2020-12-12T09:55:03,42.805,6.029,-0.021,-0.002,0.013,103.0,105.0,100.0,13.4,1505.3,325.8,-0.7,1.8,2470.394,13.32,0.021,264.6
2020-12-12T09:58:03,42.805,6.029,-0.063,-0.008,-0.001,103.0,104.0,101.0,13.3,1505.3,328.5,-0.6,1.8,2470.43,13.32,0.063,262.8